Philadelphia Wings Airport, PA

9:22 PM EDT on July 26, 2017 (GMT -0400)
Philadelphia Wings Airport

Weather History for KLOM - March, 2014

Change the Weather History Date:

Wednesday, March 5, 2014

  Actual Average (KPNE) Record (KPNE)
Temperature  
Mean Temperature 29 °F -  
Max Temperature 41 °F 45 °F 66 °F (2008)
Min Temperature 17 °F 28 °F 14 °F (2017)
Degree Days  
Heating Degree Days 36    
Moisture  
Dew Point 11 °F    
Average Humidity 49    
Maximum Humidity 80    
Minimum Humidity 21    
Precipitation  
Precipitation 0.00 in - - ()
Sea Level Pressure  
Sea Level Pressure 30.26 in    
Wind  
Wind Speed 1 mph (North)    
Max Wind Speed 8 mph    
Max Gust Speed -    
Visibility 10 miles    
Events      
Averages and records for this station are not official NWS values.
T = Trace of Precipitation, MM = Missing Value Source: NWS Daily Summary

Daily Weather History Graph

Daily Weather History Graph

Search for Another Location

Airport or City:

Trip Planner

Search our weather history database for the weather conditions in past years. The results will help you decide how hot, cold, wet, or windy it might be!

Date:

Astronomy

Mar. 05, 2014 Rise Set
Actual Time 6:28 AM EST 5:57 PM EST
Civil Twilight 6:01 AM EST 6:24 PM EST
Nautical Twilight 5:29 AM EST 6:55 PM EST
Astronomical Twilight 4:58 AM EST 7:27 PM EST
Moon 8:52 AM EST (3/5) 11:03 PM EST (3/5)
Length of Visible Light 12h 23m
Length of Day
11h 28m
Waxing Crescent, 23% of the Moon is Illuminated
Mar 5
Waxing Crescent
Mar 8
First Quarter
Mar 16
Full
Mar 23
Last Quarter
Mar 30
New

Hourly Weather History & Observations

Time (EST) Temp. Windchill Dew Point Humidity Pressure Visibility Wind Dir Wind Speed Gust Speed Precip Events Conditions
12:15 AM 23.0 °F - 14.0 °F 68% 30.24 in 10.0 mi Calm Calm - N/A   Clear
12:35 AM 21.2 °F - 14.0 °F 74% 30.23 in 10.0 mi Calm Calm - N/A   Clear
12:55 AM 21.2 °F - 14.0 °F 74% 30.24 in 10.0 mi Calm Calm - N/A   Clear
1:15 AM 21.2 °F - 14.0 °F 74% 30.23 in 10.0 mi Calm Calm - N/A   Clear
1:35 AM 21.2 °F - 14.0 °F 74% 30.22 in 10.0 mi Calm Calm - N/A   Scattered Clouds
1:55 AM 21.2 °F - 14.0 °F 74% 30.21 in 10.0 mi Calm Calm - N/A   Scattered Clouds
2:15 AM 19.4 °F - 14.0 °F 80% 30.21 in 10.0 mi Calm Calm - N/A   Clear
2:35 AM 19.4 °F - 12.2 °F 74% 30.20 in 10.0 mi Calm Calm - N/A   Clear
2:55 AM 19.4 °F - 12.2 °F 74% 30.21 in 10.0 mi Calm Calm - N/A   Clear
3:15 AM 19.4 °F - 12.2 °F 74% 30.21 in 10.0 mi Calm Calm - N/A   Clear
3:35 AM 19.4 °F - 12.2 °F 74% 30.21 in 10.0 mi Calm Calm - N/A   Clear
3:55 AM 17.6 °F - 12.2 °F 79% 30.19 in 10.0 mi Calm Calm - N/A   Clear
4:15 AM 17.6 °F - 12.2 °F 79% 30.19 in 10.0 mi Calm Calm - N/A   Scattered Clouds
4:35 AM 19.4 °F - 14.0 °F 80% 30.21 in 10.0 mi Calm Calm - N/A   Mostly Cloudy
4:55 AM 19.4 °F - 12.2 °F 74% 30.21 in 10.0 mi Calm Calm - N/A   Scattered Clouds
5:15 AM 19.4 °F - 12.2 °F 74% 30.22 in 10.0 mi Calm Calm - N/A   Scattered Clouds
5:35 AM 21.2 °F - 14.0 °F 74% 30.22 in 10.0 mi Calm Calm - N/A   Mostly Cloudy
5:55 AM 21.2 °F - 14.0 °F 74% 30.22 in 10.0 mi Calm Calm - N/A   Mostly Cloudy
6:15 AM 21.2 °F - 15.8 °F 80% 30.23 in 10.0 mi Calm Calm - N/A   Scattered Clouds
6:35 AM 23.0 °F - 17.6 °F 80% 30.23 in 10.0 mi Calm Calm - N/A   Mostly Cloudy
6:55 AM 23.0 °F - 17.6 °F 80% 30.23 in 10.0 mi Calm Calm - N/A   Mostly Cloudy
7:15 AM 23.0 °F - 17.6 °F 80% 30.24 in 10.0 mi Calm Calm - N/A   Scattered Clouds
7:35 AM 23.0 °F - 15.8 °F 74% 30.24 in 10.0 mi Calm Calm - N/A   Clear
7:55 AM 26.6 °F - 15.8 °F 64% 30.24 in 10.0 mi Calm Calm - N/A   Clear
8:15 AM 28.4 °F - 10.4 °F 47% 30.25 in 10.0 mi Calm Calm - N/A   Clear
8:35 AM 30.2 °F - 6.8 °F 37% 30.24 in 10.0 mi Calm Calm - N/A   Clear
8:55 AM 32.0 °F - 8.6 °F 38% 30.24 in 10.0 mi Calm Calm - N/A   Clear
9:15 AM 32.0 °F - 8.6 °F 38% 30.24 in 10.0 mi Calm Calm - N/A   Clear
9:35 AM 32.0 °F - 6.8 °F 35% 30.24 in 10.0 mi Calm Calm - N/A   Clear
9:55 AM 33.8 °F - 8.6 °F 35% 30.24 in 10.0 mi Calm Calm - N/A   Clear
10:15 AM 33.8 °F - 5.0 °F 30% 30.24 in 10.0 mi Calm Calm - N/A   Clear
10:35 AM 33.8 °F 30.8 °F 5.0 °F 30% 30.25 in 10.0 mi WNW 3.5 mph - N/A   Scattered Clouds
10:55 AM 33.8 °F 30.8 °F 3.2 °F 28% 30.24 in 10.0 mi West 3.5 mph - N/A   Clear
11:15 AM 35.6 °F - 6.8 °F 30% 30.23 in 10.0 mi Calm Calm - N/A   Clear
11:35 AM 35.6 °F - 6.8 °F 30% 30.23 in 10.0 mi Calm Calm - N/A   Clear
11:55 AM 37.4 °F - 6.8 °F 28% 30.23 in 10.0 mi Calm Calm - N/A   Clear
12:15 PM 37.4 °F 34.9 °F 6.8 °F 28% 30.23 in 10.0 mi North 3.5 mph - N/A   Clear
12:35 PM 39.2 °F 35.9 °F 8.6 °F 28% 30.21 in 10.0 mi NW 4.6 mph - N/A   Clear
12:55 PM 39.2 °F - 5.0 °F 24% 30.20 in 10.0 mi Calm Calm - N/A   Clear
1:15 PM 39.2 °F 35.0 °F 3.2 °F 22% 30.20 in 10.0 mi NW 5.8 mph - N/A   Clear
1:35 PM 41.0 °F 38.0 °F 3.2 °F 21% 30.21 in 10.0 mi NNW 4.6 mph - N/A   Clear
1:55 PM 41.0 °F 38.0 °F 3.2 °F 21% 30.21 in 10.0 mi WNW 4.6 mph - N/A   Clear
2:15 PM 41.0 °F 36.4 °F 3.2 °F 21% 30.20 in 10.0 mi WNW 6.9 mph - N/A   Clear
2:35 PM 41.0 °F 39.0 °F 3.2 °F 21% 30.20 in 10.0 mi North 3.5 mph - N/A   Clear
2:55 PM 41.0 °F 38.0 °F 3.2 °F 21% 30.21 in 10.0 mi NNW 4.6 mph - N/A   Mostly Cloudy
3:15 PM 39.2 °F 35.9 °F 6.8 °F 26% 30.22 in 10.0 mi NNW 4.6 mph - N/A   Overcast
3:30 PM 39.2 °F 35.0 °F 8.6 °F 28% 30.22 in 10.0 mi North 5.8 mph - N/A   Overcast
3:50 PM 39.2 °F 35.9 °F 8.6 °F 28% 30.22 in 10.0 mi NNW 4.6 mph - N/A   Overcast
4:15 PM 37.4 °F 33.8 °F 8.6 °F 30% 30.23 in 10.0 mi NNE 4.6 mph - N/A   Overcast
4:35 PM 37.4 °F - 8.6 °F 30% 30.23 in 10.0 mi Calm Calm - N/A   Overcast
4:55 PM 37.4 °F - 8.6 °F 30% 30.23 in 10.0 mi Calm Calm - N/A   Scattered Clouds
5:15 PM 37.4 °F 34.9 °F 10.4 °F 33% 30.24 in 10.0 mi NE 3.5 mph - N/A   Clear
5:35 PM 37.4 °F 33.8 °F 10.4 °F 33% 30.25 in 10.0 mi NNE 4.6 mph - N/A   Clear
5:55 PM 35.6 °F - 10.4 °F 35% 30.26 in 10.0 mi Calm Calm - N/A   Clear
6:15 PM 35.6 °F - 10.4 °F 35% 30.28 in 10.0 mi Calm Calm - N/A   Clear
6:35 PM 35.6 °F 32.8 °F 10.4 °F 35% 30.29 in 10.0 mi NNW 3.5 mph - N/A   Clear
6:55 PM 33.8 °F 30.8 °F 10.4 °F 38% 30.31 in 10.0 mi NNW 3.5 mph - N/A   Clear
7:15 PM 33.8 °F 29.6 °F 10.4 °F 38% 30.32 in 10.0 mi North 4.6 mph - N/A   Clear
7:35 PM 33.8 °F 29.6 °F 12.2 °F 41% 30.33 in 10.0 mi North 4.6 mph - N/A   Scattered Clouds
7:55 PM 33.8 °F 30.8 °F 12.2 °F 41% 30.34 in 10.0 mi North 3.5 mph - N/A   Mostly Cloudy
8:15 PM 33.8 °F 29.6 °F 12.2 °F 41% 30.35 in 10.0 mi North 4.6 mph - N/A   Mostly Cloudy
8:35 PM 32.0 °F 26.4 °F 14.0 °F 48% 30.36 in 10.0 mi North 5.8 mph - N/A   Scattered Clouds
8:55 PM 32.0 °F 26.4 °F 14.0 °F 48% 30.37 in 10.0 mi North 5.8 mph - N/A   Clear
9:15 PM 32.0 °F 27.5 °F 14.0 °F 48% 30.38 in 10.0 mi North 4.6 mph - N/A   Clear
9:35 PM 32.0 °F 28.7 °F 14.0 °F 48% 30.39 in 10.0 mi North 3.5 mph - N/A   Clear
9:55 PM 30.2 °F 25.4 °F 14.0 °F 51% 30.39 in 10.0 mi North 4.6 mph - N/A   Clear
10:15 PM 30.2 °F 25.4 °F 14.0 °F 51% 30.40 in 10.0 mi North 4.6 mph - N/A   Clear
10:35 PM 30.2 °F 22.6 °F 14.0 °F 51% 30.40 in 10.0 mi NNE 8.1 mph - N/A   Clear
10:55 PM 30.2 °F 23.4 °F 12.2 °F 47% 30.41 in 10.0 mi North 6.9 mph - N/A   Clear
11:15 PM 28.4 °F 20.4 °F 12.2 °F 51% 30.41 in 10.0 mi North 8.1 mph - N/A   Clear
11:35 PM 28.4 °F 23.3 °F 12.2 °F 51% 30.41 in 10.0 mi North 4.6 mph - N/A   Clear
11:55 PM 28.4 °F 21.2 °F 12.2 °F 51% 30.42 in 10.0 mi North 6.9 mph - N/A   Clear